EHI
15 12 12 13 13 14 12 10 8 8 8 7 7 6 6 6 6 7 9 9 9 9 10 9 10 10 8 8 8 6 4 2 1 1 2 2 2 2 1 1 1 1 2
15 13 12 14 14 15 14 11 9 8 8 8 7 7 7 6 6 7 8 7 7 8 8 8 9 8 7 6 6 5 4 2 1 2 2 2 3 4 3 1 1 1 2
15 13 12 13 14 14 13 11 9 9 9 9 9 8 7 7 7 7 6 7 7 6 6 6 7 7 6 5 5 5 5 3 3 4 3 2 4 7 6 3 2 3 3
13 12 10 11 10 10 10 10 9 9 9 9 9 9 9 8 7 7 7 7 7 5 5 6 6 6 6 5 5 6 8 7 6 7 5 5 6 8 7 5 4 5 4
10 9 8 7 7 6 7 8 9 9 9 9 10 9 9 8 6 6 7 7 7 6 5 6 5 4 4 4 4 5 7 8 8 8 8 7 8 9 8 7 5 5 4
6 5 5 6 6 6 6 8 8 7 8 9 9 9 9 7 4 3 5 6 7 6 6 6 4 2 1 1 2 2 3 5 7 9 9 10 10 9 9 7 5 4 4
5 4 4 5 6 6 7 7 7 7 8 8 8 7 7 6 3 1 2 4 6 6 7 7 5 2 1 1 0 0 0 1 4 7 9 9 8 9 9 7 5 5 4
5 4 4 5 6 6 6 6 7 8 9 9 7 6 6 5 3 1 0 2 5 6 6 6 6 3 1 0 0 0 0 1 2 5 6 6 5 6 8 6 5 4 4
5 5 5 5 6 6 6 6 6 8 9 9 7 6 6 5 2 0 0 2 4 4 4 4 4 3 1 0 1 1 1 1 2 4 4 2 2 3 4 4 3 2 2
5 6 6 6 5 4 5 4 5 6 8 8 7 6 6 5 3 1 1 3 5 4 3 3 2 1 0 0 1 2 2 1 2 3 4 3 2 3 3 4 4 2 1
4 5 6 5 4 3 4 3 4 6 7 7 6 5 5 5 4 1 1 3 5 5 4 3 2 1 0 0 1 2 2 2 2 3 4 5 4 5 6 6 6 5 3
3 3 3 3 3 3 3 3 4 6 7 7 6 5 5 6 5 2 1 2 3 5 5 4 2 1 0 0 0 1 1 1 2 3 4 5 5 6 7 8 7 7 6
1 1 1 1 1 1 3 4 4 5 6 6 5 5 6 6 6 3 1 0 1 3 4 3 2 1 0 0 0 0 0 0 2 4 5 6 5 6 7 7 7 6 6
0 0 0 0 0 1 2 3 3 3 4 4 4 4 5 6 6 5 3 2 2 2 3 2 1 0 0 0 0 0 1 1 2 4 5 6 6 5 6 6 6 5 4
1 1 0 0 0 0 1 2 2 2 3 3 2 3 4 5 5 5 4 3 3 2 2 1 0 0 0 0 0 1 2 3 3 3 4 4 4 4 4 5 4 3 3
2 2 1 0 0 0 0 1 1 1 1 1 1 1 2 2 2 2 2 2 1 1 1 1 0 0 0 0 0 1 2 3 3 2 2 2 2 2 3 4 3 2 1
3 3 1 1 0 0 0 0 0 0 0 0 0 0 0 0 0 0 0 0 0 0 0 0 0 0 1 1 1 1 2 2 1 1 1 0 0 1 3 3 2 1 0
3 3 3 2 1 0 0 0 0 0 0 0 0 0 0 0 0 0 0 0 0 0 0 0 0 0 1 2 2 2 3 2 1 0 0 0 1 1 3 2 1 0 0
3 3 3 2 1 0 0 0 0 0 0 0 1 1 0 0 0 0 0 0 0 0 0 0 1 1 2 3 3 3 2 2 1 0 0 1 2 2 2 2 1 0 0
2 2 2 2 1 0 0 0 0 0 0 0 1 1 0 0 0 0 0 0 0 0 0 1 2 2 3 4 3 1 1 1 0 0 0 2 3 3 1 1 0 0 0
1 1 1 1 0 0 0 0 0 0 0 0 0 0 0 0 0 0 0 0 0 0 0 1 2 3 3 4 3 1 0 0 0 0 0 1 2 2 1 0 0 0 0
2 1 1 1 0 0 0 0 0 0 0 0 0 0 0 0 0 0 0 0 0 0 1 1 1 2 3 3 3 1 1 0 0 0 0 0 1 1 0 0 0 0 0
2 2 2 1 1 1 0 0 0 0 0 0 0 0 0 0 0 0 0 0 0 0 0 0 0 1 2 2 2 2 2 1 0 0 0 1 1 1 1 0 0 0 0
1 2 2 2 2 2 1 0 0 0 0 0 0 0 0 0 0 0 0 0 0 0 0 0 1 1 1 1 1 1 1 1 0 0 0 1 2 2 1 0 0 0 0
0 1 1 2 2 1 1 0 0 0 0 0 0 0 0 0 0 0 0 0 0 0 0 0 1 1 0 0 0 0 0 0 0 0 0 1 1 1 1 0 0 0 0
0 0 0 1 1 1 0 0 0 0 0 0 0 0 0 0 0 0 0 0 0 0 0 0 1 1 0 0 0 0 0 0 0 0 0 0 0 0 0 0 0 0 0
Wind_Speed
3 3 3 2 2 1 1 1 1 1 1 1 2 2 2 2 1 1 1 1 1 2 2 2 2 2 1 2 2 2 2 3 3 2 1 2 2 3 2 3 4 4 5
3 3 3 2 2 1 1 1 1 1 1 1 2 2 2 2 2 2 2 2 2 3 2 2 2 2 2 2 2 3 2 2 3 3 2 2 3 3 3 4 3 4 3
4 3 3 2 2 1 1 1 1 1 1 1 2 2 2 2 2 2 3 3 3 3 3 3 3 3 3 2 3 3 3 3 3 4 3 2 3 3 3 3 3 3 4
4 3 3 2 2 1 1 1 1 1 2 2 2 2 2 2 3 3 3 3 3 3 3 3 3 3 3 3 3 3 3 3 3 4 4 3 3 3 3 3 3 3 3
3 3 3 2 2 2 1 1 1 1 2 2 2 2 2 2 2 2 3 3 3 3 3 4 3 2 2 3 3 3 3 3 4 4 4 4 3 3 4 3 3 3 3
3 3 2 2 2 2 2 2 2 2 2 2 2 2 3 1 1 2 4 4 4 4 4 4 4 4 4 4 4 4 4 5 5 5 5 5 4 4 3 3 3 3 3
3 3 3 2 2 2 2 2 2 2 2 3 3 3 3 1 0 1 3 5 4 4 4 4 3 2 3 3 4 6 6 7 7 7 7 6 5 4 4 5 4 4 4
3 3 2 3 2 1 1 1 2 2 2 3 3 3 3 2 2 2 3 5 3 3 3 3 3 3 2 2 4 5 5 5 7 7 7 7 6 4 4 5 5 5 5
1 2 2 2 2 1 1 1 2 2 2 2 2 2 2 2 2 2 4 3 2 3 3 3 4 3 0 2 4 5 5 5 4 4 4 4 3 3 4 5 5 5 5
0 1 1 2 2 1 1 1 1 2 2 2 1 1 1 1 2 2 3 3 2 3 3 3 2 2 1 2 5 5 6 5 4 3 4 5 6 7 8 8 6 6 5
0 0 1 1 2 1 1 1 1 1 1 1 1 1 1 1 2 2 1 3 3 3 2 2 1 3 2 3 5 6 5 5 5 5 4 4 5 5 6 7 6 6 6
1 0 0 1 1 1 1 1 1 2 2 2 1 1 1 2 1 2 2 3 4 4 3 3 1 2 2 4 4 4 4 5 5 4 4 4 3 4 3 4 5 6 5
1 1 1 1 1 1 2 2 2 2 2 1 1 1 0 1 2 3 4 5 5 4 3 2 2 3 4 5 6 6 5 5 4 4 4 4 3 3 3 3 4 5 5
1 1 1 1 1 1 1 1 1 1 1 1 1 1 1 1 1 1 1 3 5 5 4 2 5 6 6 5 4 4 4 3 4 4 4 3 3 3 4 4 4 4 4
1 1 1 1 1 1 1 0 1 1 2 2 1 1 2 1 2 4 3 3 3 3 3 3 4 3 3 3 3 2 2 3 3 4 4 4 3 3 4 3 3 4 4
2 2 2 2 1 2 2 2 1 0 1 1 2 3 1 2 2 2 2 2 2 2 3 4 3 4 4 3 3 2 3 3 3 3 3 3 3 3 4 3 4 4 5
2 2 2 2 2 2 2 2 2 2 3 3 2 2 1 0 0 1 2 2 2 3 3 3 3 4 3 3 3 3 3 3 3 3 4 4 4 4 4 4 4 4 4
3 2 3 3 3 2 2 2 2 2 2 2 3 4 3 3 2 1 2 2 2 2 3 3 3 4 3 3 3 3 3 3 3 3 3 3 4 4 4 5 4 5 5
3 2 2 3 3 3 3 2 2 2 1 1 1 3 4 3 3 3 3 3 2 2 3 3 3 3 3 3 3 3 3 3 3 3 3 3 3 4 4 5 5 4 5
3 2 3 3 3 3 3 2 2 2 2 2 2 1 2 2 2 2 2 2 3 3 3 3 3 3 3 3 3 3 3 3 3 3 3 3 3 4 4 5 4 4 4
2 2 5 5 3 3 2 2 2 2 2 2 2 1 0 2 2 2 2 2 3 3 3 3 3 3 3 3 3 4 4 3 3 3 3 3 4 4 4 4 4 4 4
2 2 3 3 3 3 3 3 3 3 3 3 2 2 4 4 3 3 3 3 3 3 2 3 3 3 3 3 3 4 4 4 3 3 4 4 4 4 4 4 4 4 4
3 3 3 3 3 3 4 4 3 3 3 3 3 2 2 3 3 2 3 3 3 3 3 3 3 3 3 3 3 4 4 4 4 4 4 4 4 4 4 4 5 5 5
4 4 3 3 3 3 4 4 3 3 4 3 3 3 3 3 3 3 3 3 3 3 3 3 4 4 5 4 4 3 3 3 5 4 6 5 5 4 4 5 5 5 5
4 4 4 3 3 3 3 3 3 3 3 3 3 3 4 3 3 3 3 3 4 4 4 4 4 4 5 6 5 4 2 2 4 6 5 5 5 5 5 5 4 5 5
3 3 3 4 4 3 3 3 3 3 3 3 3 3 3 3 3 3 3 3 4 3 4 4 4 5 5 5 4 3 1 2 3 5 7 5 5 5 5 4 5 5 5
Wind_Direction
155 149 148 157 154 155 166 242 260 263 241 211 201 203 199 194 201 206 229 202 222 221 226 218 236 270 247 231 224 223 231 238 243 248 183 163 197 235 191 215 209 209 186
152 154 156 159 155 166 169 217 257 256 244 221 213 214 213 203 212 220 228 222 228 228 222 217 227 222 225 256 251 235 230 237 237 246 235 203 209 220 213 233 231 222 222
153 157 153 154 154 163 173 178 199 221 243 241 224 222 228 232 231 232 241 236 234 237 235 227 224 226 228 232 245 241 235 230 229 234 238 222 221 213 210 226 237 242 243
157 154 149 151 158 172 174 173 199 216 229 244 242 232 241 245 247 246 248 243 240 239 238 239 239 234 234 244 241 239 241 241 232 238 240 229 225 209 218 226 230 223 240
156 152 153 153 158 172 178 185 209 236 234 242 250 236 243 240 265 285 268 250 242 241 240 238 234 230 262 270 272 255 245 244 239 235 240 239 230 220 226 235 240 242 232
155 150 145 149 156 177 195 204 209 223 239 243 246 242 242 250 35 315 287 264 249 242 243 244 226 207 205 216 241 256 265 255 256 253 249 247 242 240 237 242 246 246 248
161 163 161 170 175 194 213 211 217 227 231 245 246 238 234 206 147 255 277 271 256 251 246 249 252 229 231 240 216 219 234 241 249 262 265 266 260 246 239 239 242 257 266
165 166 172 185 182 190 219 240 255 252 244 243 249 242 238 183 161 216 265 249 254 253 251 249 252 260 278 287 268 253 247 239 235 240 255 263 266 259 240 245 247 246 248
159 170 186 191 190 194 208 241 256 259 250 243 245 245 235 186 160 205 261 251 244 254 259 254 253 251 92 306 268 263 260 254 229 231 259 267 281 258 248 243 233 236 241
174 205 199 199 196 208 225 240 232 240 244 252 247 249 229 198 134 181 257 264 257 258 242 238 202 251 260 245 260 260 259 265 266 245 239 236 236 226 216 230 239 241 249
162 210 179 192 202 198 203 228 245 237 220 225 209 212 200 191 143 142 266 283 286 278 275 266 244 151 211 247 262 262 263 278 270 260 251 242 230 222 215 220 235 245 251
123 114 130 200 238 172 188 207 231 242 199 181 192 217 188 177 167 155 188 249 289 279 280 290 339 145 224 252 254 263 261 264 258 256 254 250 246 243 234 228 229 241 253
154 164 201 216 233 216 206 195 204 215 232 227 226 235 231 179 163 183 202 224 247 261 284 329 306 242 239 238 231 234 241 248 255 259 261 261 262 265 258 233 227 229 240
182 196 200 203 212 187 225 223 237 231 227 239 256 268 278 255 257 217 240 231 227 236 256 242 223 230 242 250 233 219 233 255 263 265 271 276 272 255 241 238 237 233 235
203 209 225 224 204 206 209 302 285 356 357 308 302 291 285 270 359 354 311 297 296 303 293 268 259 246 242 245 249 255 248 243 249 260 263 262 262 259 256 244 240 243 242
226 227 232 238 239 230 199 181 113 217 123 208 307 310 17 55 47 3 342 331 318 292 270 258 263 261 259 258 255 255 252 252 258 263 263 259 260 264 263 254 239 237 242
239 244 258 256 249 250 239 227 203 175 180 188 207 244 281 153 157 279 291 284 269 245 245 260 271 275 276 276 272 268 266 268 266 257 255 254 255 254 255 256 248 241 241
238 214 239 243 243 248 255 254 245 236 210 183 179 190 202 213 223 232 257 257 241 232 259 277 284 283 283 282 277 271 267 260 256 255 250 250 249 254 257 256 252 250 247
242 237 240 253 245 240 244 247 241 238 255 250 186 158 181 197 202 206 221 262 278 274 282 288 291 284 279 281 279 270 265 262 265 265 259 255 254 254 256 256 253 249 252
224 228 249 256 247 239 239 245 246 239 236 248 260 227 168 207 229 204 227 256 275 284 287 289 295 297 292 288 284 276 262 254 254 258 263 260 255 253 252 255 255 250 247
231 198 209 239 242 245 255 266 268 265 261 257 263 37 339 263 269 267 256 255 263 275 285 293 295 292 287 283 281 278 276 266 264 267 268 266 261 257 256 254 251 250 252
246 234 225 235 235 238 249 253 259 262 260 268 263 187 185 242 262 269 273 270 265 271 280 284 286 291 293 283 277 275 272 271 267 264 266 264 260 258 254 250 250 250 246
243 239 231 235 237 220 236 245 252 262 261 261 270 262 230 252 263 267 273 275 277 279 278 274 278 282 284 281 279 273 274 279 281 281 273 266 261 258 257 251 246 246 247
236 238 242 240 238 237 240 245 248 256 264 268 269 271 267 262 266 268 270 274 270 270 271 272 276 286 289 283 273 268 280 300 293 278 274 271 266 260 254 249 249 245 243
231 232 243 250 249 250 251 252 254 257 265 270 270 272 274 272 269 272 277 276 271 266 269 269 272 276 278 278 285 297 343 324 300 299 281 270 268 267 263 255 246 243 242
233 236 244 248 248 246 246 250 254 261 267 270 270 270 274 275 272 271 273 276 276 270 269 265 272 279 280 271 281 302 290 267 276 286 283 270 265 262 261 257 253 249 243